Location: Unspecified
(0.0000°N, 0.0000°E)
Time: 21:23:25
(UTC+00:00)

COSMOS 1275 DEB - Pass Details

Date: 25 March 2026
Orbit: 902 x 973 km, 82.9° (Epoch: 8 April)

Event Time Altitude Azimuth Distance (km) Brightness Sun altitude
Rises 18:47:02 0° 330° (NNW) 3,649 ? -10.3°
Reaches altitude 10° 18:50:07 10° 316° (NW) 2,700 ? -11.0°
Maximum altitude 18:54:44 22° 267° (W) 1,954 ? -12.2°
Drops below altitude 10° 18:59:20 10° 218° (SW) 2,680 ? -13.4°
Sets 19:02:24 0° 203° (SSW) 3,616 ? -14.1°
